Tracking 31027 objects as of 19-Jul-2025
HD Live streaming from Space Station
objects crossing your sky now

ONEWEB-0278

Track ONEWEB-0278 now!
10-day predictions
ONEWEB-0278 is classified as:


NORAD ID: 48996
Int'l Code: 2021-061AF
Perigee: 1,203.5 km
Apogee: 1,206.3 km
Inclination: 87.9 °
Period: 109.4 minutes
Semi major axis: 7575 km
RCS: Unknown
Launch date: July 1, 2021
Source: United Kingdom (UK)
Launch site: VOSTOCHNY COSMODROME (VOSTO)
Your satellite tracking list
SL-14 DEB
Track 1 satellite(s)




NASA's NSSDC Master Catalog

Two Line Element Set (TLE):
1 48996U 21060AF  25199.56319424  .00000094  00000-0  21320-3 0  9999
2 48996  87.9057 295.2709 0001846  95.1419 264.9922 13.16595496195790
Source of the keplerian elements: AFSPC